Profile of Voice Seeker 54997

These are the public details of this voice seeker.

54997
Confidential (why?)
2009-04-17

110 projects

3 projects
242

91.97%
22 days ago
• A Voice123 Team member HAS NOT spoken over the phone to this voice-seeker about his/her projects, messages, or invitations.
• A Voice123 Team member HAS communicated via email with this voice-seeker about his/her projects, messages, or invitations.
List of Projects Posted with Voice123's SmartCast Enabled:
ID Name Posted Deadline Auditions/
Proposals Received
% of Auditions/
Proposals
Opened
ZD2609062 Stop Hiding Hair Loss 2017-05-31 06:52:40 GMT 2017-06-01 19:00:00 GMT 63 98.41%
ZD2383823 Maestro Steven 2017-05-03 03:40:28 GMT 2017-05-04 23:00:00 GMT 14 100.00%
ZD2383786 Maestra Brianne 2017-05-03 03:37:13 GMT 2017-05-04 23:00:00 GMT 8 100.00%
ZD2383766 Maestra Karen 2017-05-03 03:34:18 GMT 2017-05-04 23:00:00 GMT 5 100.00%
ZD2383701 La historia de Dasmond 2017-05-03 03:27:30 GMT 2017-05-04 20:00:00 GMT 10 100.00%
ZD2381980 La historia de Alan 2017-05-03 00:22:32 GMT 2017-05-04 20:00:00 GMT 11 100.00%
ZD2383702 La historia de Daniel 2017-05-03 03:27:56 GMT 2017-05-04 20:00:00 GMT 5 100.00%
ZD2381876 La historia de Elizabeth 2017-05-03 00:11:24 GMT 2017-05-04 19:00:00 GMT 8 100.00%
ZD2245225 Cambia la historia 2017-04-15 06:30:13 GMT 2017-04-18 19:00:00 GMT 13 23.08%
ZD1701316 Coming Soonish 2016-12-15 01:38:12 GMT 2016-12-23 18:00:00 GMT 75 69.33%
ZD1203624 At Risk Youth 2016-08-26 02:10:34 GMT 2016-08-31 20:00:00 GMT 55 100.00%
ZD876346 Business Rebates Radio 2016-06-13 22:42:16 GMT 2016-06-14 20:00:00 GMT 56 92.86%
ZD831663 Island Travelogue 2016-06-03 23:05:09 GMT 2016-06-06 18:00:00 GMT 14 100.00%
ZD686471 Fun Corporate Video ADR 2016-04-01 05:26:39 GMT 2016-04-15 18:00:00 GMT 29 100.00%
ZD606139 VO for Scanner Features Video 2015-10-19 21:03:23 GMT 2015-10-21 17:00:00 GMT 19 100.00%
ZD602822 Fitness Service Video Dutch 2015-09-26 00:12:20 GMT 2015-09-30 20:00:00 GMT 8 100.00%
ZD602324 Electricity and Emotion 2015-09-22 23:13:38 GMT 2015-09-24 17:00:00 GMT 60 88.33%
ZD599397 Fitness Service Portuguese 3 Videos 2015-09-06 05:40:21 GMT 2015-09-11 01:00:00 GMT 12 100.00%
ZD598941 Generations Radio Announcer 2015-09-02 00:45:44 GMT 2015-09-07 20:00:00 GMT 54 94.44%
ZD598939 Generations Radio Young Adult Male 2015-09-02 00:44:20 GMT 2015-09-03 20:00:00 GMT 19 100.00%
ZD598938 Generations Radio New Father 2015-09-02 00:42:19 GMT 2015-09-03 20:00:00 GMT 21 95.24%
ZD598937 Generations Radio Young Adult Male GMT 2015-09-01 20:46:14 GMT 0 N/A
ZD598936 Generations Radio Teenage Boy 2015-09-02 00:28:54 GMT 2015-09-03 20:00:00 GMT 11 100.00%
ZD598935 Generations Radio Little Boy 2015-09-02 00:27:31 GMT 2015-09-03 20:00:00 GMT 7 100.00%
ZD598608 Fitness Service Mandarin 3 Videos 2015-08-29 08:24:30 GMT 2015-09-03 02:00:00 GMT 10 100.00%
ZD598607 Fitness Service French 3 Videos 2015-08-29 08:23:19 GMT 2015-09-03 02:00:00 GMT 20 100.00%
ZD598606 Fitness Service Spanish 3 Videos 2015-08-29 08:22:15 GMT 2015-09-03 02:00:00 GMT 21 100.00%
ZD598605 Fitness Service German 3 Videos 2015-08-29 08:20:54 GMT 2015-09-03 02:00:00 GMT 15 100.00%
ZD597476 Danger Radio Spanish Woman 2015-08-19 16:57:46 GMT 2015-08-20 20:00:00 GMT 10 40.00%
ZD597454 Danger Radio Femme 2015-08-19 02:57:47 GMT 2015-08-20 22:00:00 GMT 21 85.71%
ZD597447 Danger Radio Spanish 2015-08-19 02:30:05 GMT 2015-08-20 22:00:00 GMT 25 12.00%
ZD597441 Danger Radio 2015-08-19 01:40:42 GMT 2015-08-22 18:00:00 GMT 49 67.35%
ZD595959 Emotional Documentary Appeal for NonProfit 2015-08-07 03:40:41 GMT 2015-08-13 11:00:00 GMT 75 100.00%
ZD594466 SWH Man Cowboy 2015-07-28 02:36:53 GMT 2015-07-30 22:00:00 GMT 41 17.07%
ZD594464 SWH for Business Woman 2015-07-28 02:28:11 GMT 2015-07-30 22:00:00 GMT 46 86.96%
ZD592563 switch to solar for business 2015-07-14 04:51:10 GMT 2015-07-16 17:00:00 GMT 98 74.49%
ZD591528 Energy Company Video 2015-07-06 22:28:58 GMT 2015-07-07 23:00:00 GMT 40 100.00%
ZD454648 Fitness Service 2 UK 2015-05-19 23:02:41 GMT 2015-07-27 18:00:00 GMT 44 100.00%
ZD438309 Fitness Service 2015-05-15 18:06:57 GMT 2015-05-26 03:00:00 GMT 64 76.56%
ZD409621 Directions SPANISH HUSBAND 2015-05-06 18:11:54 GMT 2015-05-08 20:00:00 GMT 16 18.75%
ZD409620 Directions Spanish Kids 2015-05-06 18:09:27 GMT 2015-05-09 02:00:00 GMT 5 80.00%
ZD409619 Directions Spanish Announcer 2015-05-06 18:08:44 GMT 2015-05-09 01:00:00 GMT 39 5.13%
ZD397476 Okay Mami Spanish WOMAN 2015-05-03 04:17:26 GMT 2015-05-07 02:00:00 GMT 15 33.33%
ZD397475 Okay Mami Spanish Announcer 2015-05-03 04:15:38 GMT 2015-05-06 02:00:00 GMT 28 92.86%
ZD397416 Okay Mami Spanish Girl 2015-05-03 04:14:21 GMT 2015-05-06 02:00:00 GMT 12 91.67%
ZD397406 Directions English Announcer 2015-05-03 04:12:43 GMT 2015-05-05 19:00:00 GMT 69 100.00%
ZD396906 Brand Tone Video 2015-05-02 03:02:56 GMT 2015-05-05 02:00:00 GMT 37 100.00%
ZD396884 Directions Kids English 2015-05-02 01:52:55 GMT 2015-05-05 21:00:00 GMT 13 100.00%
ZD396879 Directions Dad English 2015-05-02 03:08:56 GMT 2015-05-05 21:00:00 GMT 49 100.00%
ZD391685 Straight Talk about Energy 2015-04-30 18:17:09 GMT 2015-05-08 02:00:00 GMT 105 88.57%
ZD371596 Fresh Savings Healthy Grocery Store Promo 2015-04-23 18:48:53 GMT 2015-05-04 03:00:00 GMT 63 95.24%
ZD265409 Case Study for Candy Company 2015-03-11 17:54:58 GMT 2015-03-15 01:00:00 GMT 19 100.00%
ZD265308 Case Study for Candy Client 2015-03-11 04:36:06 GMT 2015-03-11 01:37:09 GMT 3 100.00%
ZD251119 Spring Garden 2015-03-03 18:41:17 GMT 2015-03-05 00:00:00 GMT 56 92.86%
ZD236593 Gardening Promo 2015-02-21 03:52:56 GMT 2015-03-02 21:00:00 GMT 48 100.00%
ZD165180 Modular workstation S3 2014-12-02 00:07:26 GMT 2014-12-03 04:00:00 GMT 64 78.12%
ZD155312 Kinetic Typography product launch video 2014-11-08 20:02:42 GMT 2014-11-19 01:00:00 GMT 76 75.00%
ZD149885 Sweet 2014-09-30 00:04:52 GMT 2014-10-03 23:00:00 GMT 77 92.21%
ZD148916 Farmers 2014-09-22 23:21:50 GMT 2014-09-26 22:00:00 GMT 74 59.46%
ZD148751 Nuts 2014-09-20 20:10:49 GMT 2014-09-24 06:00:00 GMT 69 0.00%
ZD148142 Solar Heartfelt 2014-09-17 04:43:29 GMT 2014-09-18 01:00:00 GMT 53 100.00%
ZD147531 Now 2014-09-12 05:43:12 GMT 2014-09-24 03:00:00 GMT 83 100.00%
ZD146118 Language FR 2014-09-04 02:00:05 GMT 2014-09-05 20:56:16 GMT 21 76.19%
ZD145693 Language 2014-08-30 07:50:09 GMT 2014-09-03 07:00:00 GMT 28 100.00%
ZD138242 Safety Expert 2014-07-23 06:29:36 GMT 2014-07-27 00:00:00 GMT 35 91.43%
ZD130451 The Legend 2014-06-07 19:53:20 GMT 2014-06-10 08:00:00 GMT 49 100.00%
ZD124141 CARE Radio English 2014-05-17 20:00:03 GMT 2014-05-20 17:00:00 GMT 68 100.00%
ZD124142 CARE Radio Espagnol 2014-05-17 20:01:20 GMT 2014-05-20 17:00:00 GMT 38 7.89%
ZD107893 Account Banner 2014-03-11 22:03:46 GMT 2014-03-15 21:00:00 GMT 41 87.80%
ZD105033 Case Study VO 2014-02-27 18:19:55 GMT 2014-03-03 20:00:00 GMT 35 100.00%
ZD104722 B2B Technology Company Product Demo Videos 2014-02-26 08:19:59 GMT 2014-02-28 20:00:00 GMT 47 100.00%
ZD102591 Twitter Training 2014-02-15 14:09:34 GMT 2014-02-19 07:00:00 GMT 45 97.78%
ZD71173 30 Second Pre Roll Spot 2013-11-01 23:53:20 GMT 2013-11-04 07:00:00 GMT 0 N/A
ZDLTK53309100147X Tahiti 60 espagnol 2013-03-20 01:20:16 GMT 2013-03-23 21:00:00 GMT 0 N/A
ZDLTK53308402157X LP Suns 2013-01-25 02:04:21 GMT 2013-01-29 01:00:00 GMT 0 N/A
ZDLTK53307745684X Tech Demo 2012-11-09 20:05:08 GMT 2012-11-13 18:00:00 GMT 0 N/A
ZDLTK53307537436X Tahiti 60 en francais 2012-10-18 04:16:39 GMT 2012-10-23 04:00:00 GMT 0 N/A
ZDLTK53307207234X Performance Polo Video 2012-09-18 23:24:43 GMT 2012-09-26 23:00:00 GMT 0 N/A
ZDLTK53306637009X Ultimate Luxury 2012-08-17 02:58:35 GMT 2012-08-22 02:00:00 GMT 0 N/A
ZDLTK494046060540X Take me to TortillaLand 2012-06-28 03:40:26 GMT 2012-07-10 17:00:00 GMT 0 N/A
ZDLTK494045665348X Tortillaland in store 2012-06-12 04:05:55 GMT 2012-06-14 03:00:00 GMT 0 N/A
ZDLTK494039370866X AUS 0019 2012-05-11 01:01:51 GMT 2012-05-15 00:00:00 GMT 0 N/A
ZDLTK494035935699X ATN Get On Board 2012-05-01 01:41:09 GMT 2012-05-03 01:00:00 GMT 0 N/A
ZDLTK494032568440X Yoga for Hope 2012-04-20 01:03:34 GMT 2012-04-25 00:00:00 GMT 0 N/A
ZDLTK494026558141X Tahiti60 2012-02-21 19:34:52 GMT 2012-02-25 18:00:00 GMT 0 N/A
ZDLTK49406686238X EZ tag 2011-05-31 18:38:28 GMT 2011-06-01 22:00:00 GMT 0 N/A
ZDLTK49405650354X It's EZ 2011-05-26 23:42:02 GMT 2011-05-30 22:00:00 GMT 0 N/A
ZDLTK49405297649X MON preroll 2011-05-25 00:20:54 GMT 2011-05-27 00:00:00 GMT 0 N/A
ZDLTK49404578814X Animated instructional videos 2011-05-05 23:57:27 GMT 2011-05-09 23:00:00 GMT 0 N/A
ZDLTK49401966615X NPS Radio Remodel 2011-04-20 20:12:16 GMT 2011-04-23 19:00:00 GMT 0 N/A
ZDLTK49401967822X NPS Radio Consultation 2011-04-20 20:09:10 GMT 2011-04-24 19:00:00 GMT 0 N/A
ZDLTK152065757301X Closer than you think 2011-03-30 23:39:35 GMT 2011-04-01 20:00:00 GMT 0 N/A
ZDLTK152060385517X DE Plant Video 2011-02-11 18:41:55 GMT 2011-02-17 17:00:00 GMT 0 N/A
ZDLTK152059196385X EZL Soccer Sweeps Espagnol female 2011-01-28 18:46:33 GMT 2011-02-01 20:00:00 GMT 0 N/A
ZDLTK152059197273X EZL Soccer Sweeps Espagnol male 2011-01-28 18:52:55 GMT 2011-02-01 20:00:00 GMT 0 N/A
ZDLTK152055844960X EZL EZRider female 2010-12-21 02:36:54 GMT 2010-12-22 02:00:00 GMT 0 N/A
ZDLTK152055333730X EZL EZRider 2010-12-15 18:27:34 GMT 2010-12-21 02:31:33 GMT 0 N/A
ZDLTK152052440445X Goodwill Thanksgiving Radio 2010-11-15 19:08:28 GMT 2010-11-17 18:00:00 GMT 0 N/A
ZDLTK152052440887X Goodwill Thanksgiving Radio Spanish 2010-11-15 21:24:54 GMT 2010-11-16 20:00:00 GMT 0 N/A
ZDLTK152051621326X EOS Demo 2010-11-09 18:18:36 GMT 2010-11-12 17:00:00 GMT 0 N/A
ZDLTK152042711472X Grand Opening Male 2010-07-20 22:51:32 GMT 2010-07-22 22:00:00 GMT 0 N/A
ZDLTK152042711750X Grand Opening Male 2010-07-20 22:54:29 GMT 2010-07-22 22:00:00 GMT 0 N/A
ZDLTK152042711869X Grand Opening Female 2010-07-20 22:58:20 GMT 2010-07-22 22:00:00 GMT 0 N/A
ZDLTK152030007298X AMS0002A 2009-12-08 21:55:43 GMT 2009-12-10 21:00:00 GMT 53 100.00%
ZDLTK152021053261X PNA1princess 2009-05-09 00:58:16 GMT 2009-05-11 18:00:00 GMT 45 97.78%
ZDLTK152021053367X PNA1phollywood 2009-05-09 00:55:18 GMT 2009-05-12 00:00:00 GMT 62 12.90%
ZDLTK152021053422X PNA1wvu 2009-05-09 01:04:14 GMT 2009-05-11 19:00:00 GMT 41 31.71%
ZDLTK152020463410X TPG Therm 2009-04-23 23:16:12 GMT 2009-04-24 23:00:00 GMT 30 100.00%
ZDLTK152020463742X TPG Therm Male 2009-04-23 23:21:22 GMT 2009-04-27 23:00:00 GMT 45 95.56%
ZDLTK152020244407X Tahiti IYL 2009-04-18 04:06:24 GMT 2009-04-21 18:00:00 GMT 43 76.74%

Note: Although Voice123 tries to establish the legitimacy of all voice seekers, you are responsible for conducting your own investigation into any and all claims made by prospective voice seekers, agents and/or clients. You assume all liability for use of any information you find through Voice123, or any of its publications.